TimeCST,TemperatureF,Dew PointF,Humidity,Sea Level PressureIn,VisibilityMPH,Wind Direction,Wind SpeedMPH,Gust SpeedMPH,PrecipitationIn,Events,Conditions,WindDirDegrees,DateUTC
12:53 AM,30.0,21.9,72,30.02,10.0,Calm,Calm,-,N/A,,Clear,0,2013-02-24 06:53:00
1:53 AM,28.9,21.9,75,30.04,9.0,Calm,Calm,-,N/A,,Clear,0,2013-02-24 07:53:00
2:53 AM,28.9,23.0,78,30.01,9.0,East,3.5,-,N/A,,Clear,80,2013-02-24 08:53:00
3:53 AM,28.0,25.0,88,30.02,9.0,Calm,Calm,-,N/A,,Clear,0,2013-02-24 09:53:00
4:53 AM,27.0,24.1,89,30.02,9.0,ENE,3.5,-,N/A,,Clear,70,2013-02-24 10:53:00
6:53 AM,25.0,23.0,92,30.04,7.0,East,3.5,-,N/A,,Clear,80,2013-02-24 12:53:00
7:53 AM,30.0,27.0,88,30.05,8.0,East,3.5,-,N/A,,Clear,100,2013-02-24 13:53:00
8:53 AM,36.0,28.0,73,30.08,8.0,SE,6.9,-,N/A,,Clear,140,2013-02-24 14:53:00
9:53 AM,39.9,28.0,63,30.07,9.0,SE,9.2,-,N/A,,Clear,140,2013-02-24 15:53:00
10:53 AM,45.0,27.0,49,30.06,10.0,SSE,10.4,16.1,N/A,,Clear,150,2013-02-24 16:53:00
11:53 AM,48.0,28.0,46,30.05,10.0,Variable,6.9,-,N/A,,Clear,0,2013-02-24 17:53:00
12:53 PM,50.0,28.9,44,30.03,10.0,SE,8.1,-,N/A,,Clear,140,2013-02-24 18:53:00
1:53 PM,52.0,28.0,40,29.99,10.0,ESE,10.4,-,N/A,,Clear,110,2013-02-24 19:53:00
2:53 PM,53.1,28.9,40,29.96,10.0,SE,10.4,-,N/A,,Clear,140,2013-02-24 20:53:00
3:53 PM,54.0,28.9,38,29.95,10.0,ESE,8.1,16.1,N/A,,Clear,110,2013-02-24 21:53:00
4:53 PM,52.0,30.0,43,29.94,10.0,East,11.5,-,N/A,,Clear,100,2013-02-24 22:53:00
5:53 PM,48.9,28.9,46,29.94,10.0,ESE,8.1,-,N/A,,Clear,110,2013-02-24 23:53:00
6:53 PM,46.0,28.9,51,29.94,10.0,East,9.2,-,N/A,,Clear,100,2013-02-25 00:53:00
7:53 PM,44.1,30.0,58,29.94,10.0,ESE,10.4,-,N/A,,Clear,110,2013-02-25 01:53:00
8:53 PM,42.1,30.9,65,29.96,10.0,East,8.1,-,N/A,,Clear,100,2013-02-25 02:53:00
9:53 PM,39.9,30.0,68,29.94,10.0,East,6.9,-,N/A,,Clear,90,2013-02-25 03:53:00
10:53 PM,37.9,30.0,73,29.93,10.0,ENE,6.9,-,N/A,,Clear,70,2013-02-25 04:53:00
11:53 PM,37.0,30.0,76,29.93,9.0,East,6.9,-,N/A,,Clear,80,2013-02-25 05:53:00